GW5014 Weather Reports


time (UTC)temp
C
wind
direction
speed
KPH
gust
KPH
rain 1hr
cm
rain 24hr
cm
rain mn
cm
humidity
%
barometer
mb
20260510094738 7 219 0.0 0.0 0.00 0.20 0.20 98 1006.7
20260510094234 7 205 0.0 0.0 0.00 0.20 0.20 99 1006.8
20260510093730 7 193 0.0 0.0 0.00 0.20 0.20 99 1007.1
20260510093227 7 205 0.0 0.0 0.00 0.20 0.20 99 1007.3
20260510092723 7 212 0.0 0.0 0.00 0.20 0.20 99 1007.3
20260510092219 7 212 0.0 0.0 0.00 0.20 0.20 99 1007.2
20260510091715 7 217 0.0 0.0 0.00 0.20 0.20 99 1007.2
20260510091212 7 217 0.0 0.0 0.00 0.20 0.20 99 1006.8
20260510090708 7 208 0.0 0.0 0.00 0.20 0.20 98 1006.3
20260510090205 7 205 0.0 0.0 0.00 0.20 0.20 98 1006.4
20260510085700 7 209 0.0 0.0 0.00 0.20 0.20 98 1006.6
20260510085155 7 187 0.0 0.0 0.00 0.20 0.20 98 1006.7
20260510084652 7 202 0.0 0.0 0.00 0.20 0.20 98 1006.7
20260510084149 6 203 0.0 0.0 0.00 0.20 0.20 98 1006.6
20260510083645 6 199 0.0 0.0 0.00 0.20 0.20 98 1006.7
20260510083142 6 206 0.0 0.0 0.00 0.20 0.20 98 1006.8
20260510082639 7 215 0.0 0.0 0.00 0.20 0.20 98 1006.9
20260510082134 7 207 0.0 0.0 0.00 0.20 0.20 97 1006.6
20260510081629 7 205 0.0 0.0 0.00 0.20 0.20 97 1006.6
20260510081126 7 210 0.0 0.0 0.00 0.20 0.20 97 1006.3
20260510080625 7 209 0.0 0.0 0.00 0.20 0.20 97 1006.3
20260510080122 7 208 0.0 0.0 0.00 0.20 0.20 97 1006.2
20260510075619 7 200 0.0 0.0 0.00 0.20 0.20 96 1006.3
20260510075116 7 211 0.0 0.0 0.00 0.20 0.20 97 1006.3
20260510074613 7 205 0.0 0.0 0.00 0.20 0.20 97 1006.4
20260510074109 7 208 0.0 0.0 0.00 0.20 0.20 97 1006.4
20260510073605 7 201 0.0 0.0 0.00 0.20 0.20 98 1006.4
20260510073102 7 196 0.0 0.0 0.00 0.20 0.20 98 1006.4
20260510072559 7 207 0.0 0.0 0.00 0.20 0.20 98 1006.3
20260510072054 7 205 0.0 0.0 0.00 0.20 0.20 98 1006.6
20260510071551 7 214 0.0 0.0 0.00 0.20 0.20 97 1006.6
20260510071049 7 213 0.0 0.0 0.00 0.20 0.20 97 1006.4
20260510070545 7 218 0.0 0.0 0.00 0.20 0.20 97 1006.4
20260510070043 8 189 0.0 0.0 0.00 0.20 0.20 97 1006.6
20260510065539 8 194 0.0 0.0 0.00 0.20 0.20 96 1006.4
20260510065034 8 184 0.0 0.0 0.00 0.20 0.20 96 1006.8
20260510064531 8 214 0.0 0.0 0.00 0.20 0.20 96 1006.4
20260510064028 8 208 0.0 0.0 0.00 0.20 0.20 95 1006.4
20260510063525 8 209 0.0 0.0 0.00 0.20 0.20 95 1006.6
20260510063022 8 211 1.6 3.2 0.00 0.20 0.20 94 1006.4
20260510062518 8 205 0.0 0.0 0.00 0.20 0.20 94 1006.4
20260510062013 8 200 3.2 4.8 0.00 0.20 0.20 93 1006.2
20260510061510 8 252 0.0 0.0 0.00 0.20 0.20 92 1006.4
20260510061007 8 178 1.6 1.6 0.00 0.20 0.20 94 1006.2
20260510060503 8 208 0.0 0.0 0.00 0.20 0.20 94 1006.4
20260510055959 8 193 0.0 0.0 0.00 0.20 0.20 93 1006.2
20260510055455 8 197 0.0 0.0 0.13 0.20 0.20 93 1006.6
20260510054954 8 213 0.0 0.0 0.30 0.20 0.20 94 1006.3
20260510054449 8 210 0.0 0.0 0.30 0.18 0.18 94 1006.6
20260510053944 8 203 0.0 0.0 0.13 0.15 0.15 95 1006.6
20260510053439 8 199 0.0 0.0 0.18 0.13 0.13 95 1006.7
20260510052936 8 213 0.0 0.0 0.18 0.13 0.13 95 1006.7
20260510052432 9 199 0.0 0.0 0.18 0.13 0.13 95 1006.3
20260510051928 9 189 0.0 0.0 0.13 0.10 0.10 95 1006.6
20260510051425 9 207 0.0 0.0 0.30 0.10 0.10 93 1006.6
20260510050921 9 197 0.0 0.0 0.48 0.08 0.08 92 1006.6
20260510050418 10 211 0.0 0.0 0.30 0.05 0.05 89 1006.6
20260510045915 10 209 0.0 0.0 0.18 0.03 0.03 86 1006.6
20260510045412 10 231 0.0 1.6 0.00 0.00 0.00 82 1006.4
20260510044909 10 205 0.0 0.0 0.00 0.00 0.00 80 1006.3
20260510044406 10 216 0.0 0.0 0.00 0.00 0.00 80 1006.0
20260510043902 10 200 0.0 0.0 0.00 0.00 0.00 80 1006.1
20260510043358 10 249 1.6 1.6 0.00 0.00 0.00 80 1006.0
20260510042857 10 196 3.2 3.2 0.00 0.00 0.00 80 1006.1
20260510042352 10 168 0.0 1.6 0.00 0.00 0.00 81 1006.0
20260510041849 10 218 4.8 9.7 0.00 0.00 0.00 80 1006.1
20260510041346 10 194 0.0 1.6 0.00 0.00 0.00 81 1006.2
20260510040843 10 234 1.6 1.6 0.00 0.00 0.00 82 1005.9
20260510040340 9 196 0.0 1.6 0.00 0.00 0.00 83 1005.8
20260510035835 8 205 0.0 0.0 0.00 0.00 0.00 86 1005.5
20260510035331 9 191 0.0 0.0 0.00 0.00 0.00 84 1005.4
20260510034827 8 197 0.0 0.0 0.00 0.00 0.00 85 1005.5
20260510034325 8 208 0.0 0.0 0.00 0.00 0.00 87 1005.4
20260510033821 8 207 0.0 0.0 0.00 0.00 0.00 88 1005.4
20260510033319 8 216 0.0 0.0 0.00 0.00 0.00 88 1005.4
20260510032815 8 203 0.0 0.0 0.00 0.00 0.00 87 1005.1
20260510032312 8 200 0.0 0.0 0.00 0.00 0.00 86 1005.3
20260510031807 8 206 0.0 0.0 0.00 0.00 0.00 85 1005.3
20260510031303 8 205 0.0 0.0 0.00 0.00 0.00 84 1005.2
20260510030803 9 209 0.0 0.0 0.00 0.00 0.00 84 1005.4
20260510030300 9 200 0.0 0.0 0.00 0.00 0.00 84 1005.5
20260510025757 9 169 4.8 6.4 0.00 0.00 0.00 84 1005.5
20260510025254 9 203 0.0 0.0 0.00 0.00 0.00 84 1005.6
20260510024751 9 196 1.6 1.6 0.00 0.00 0.00 83 1005.7
20260510024248 8 185 0.0 1.6 0.00 0.00 0.00 85 1005.7
20260510023743 8 183 0.0 0.0 0.00 0.00 0.00 84 1005.8
20260510023236 8 203 0.0 0.0 0.00 0.00 0.00 84 1005.6
20260510022732 8 195 0.0 0.0 0.00 0.00 0.00 84 1005.9
20260510022231 8 186 0.0 0.0 0.00 0.00 0.00 84 1005.9
20260510021726 8 201 0.0 0.0 0.00 0.00 0.00 84 1005.8
20260510021224 8 219 0.0 0.0 0.00 0.00 0.00 83 1006.0
20260510020719 9 180 0.0 0.0 0.00 0.00 0.00 82 1005.9
20260510020219 9 170 1.6 3.2 0.00 0.00 0.00 81 1006.0
20260510015715 9 220 0.0 0.0 0.00 0.00 0.00 81 1006.3
20260510015212 8 205 0.0 0.0 0.00 0.00 0.00 82 1006.1
20260510014707 8 217 0.0 0.0 0.00 0.00 0.00 84 1006.2
20260510014200 8 200 0.0 0.0 0.00 0.00 0.00 84 1006.0
20260510013659 8 189 0.0 0.0 0.00 0.00 0.00 86 1006.0
20260510013156 7 154 1.6 1.6 0.00 0.00 0.00 87 1005.9
20260510012655 8 168 0.0 1.6 0.00 0.00 0.00 87 1006.0
20260510012151 8 199 0.0 0.0 0.00 0.00 0.00 86 1005.7
20260510011646 8 204 0.0 0.0 0.00 0.00 0.00 86 1005.8
20260510011142 8 192 0.0 0.0 0.00 0.00 0.00 86 1005.6
20260510010638 8 139 1.6 3.2 0.00 0.00 0.00 87 1005.8
20260510010136 8 202 1.6 1.6 0.00 0.00 0.00 86 1005.5
20260510005631 7 195 0.0 0.0 0.00 0.00 0.00 87 1005.5
20260510005128 7 196 0.0 1.6 0.00 0.00 0.00 87 1005.7
20260510004627 8 217 0.0 0.0 0.00 0.00 0.00 86 1005.9
20260510004124 8 203 0.0 0.0 0.00 0.00 0.00 85 1005.9
20260510003621 8 195 0.0 0.0 0.00 0.00 0.00 85 1006.0
20260510003117 8 191 0.0 0.0 0.00 0.00 0.00 85 1005.7
20260510002612 8 203 0.0 0.0 0.00 0.00 0.00 84 1005.7
20260510002109 8 131 3.2 3.2 0.00 0.00 0.00 84 1005.8
20260510001606 8 201 0.0 0.0 0.00 0.00 0.00 83 1005.8
20260510001105 8 208 0.0 0.0 0.00 0.00 0.00 82 1006.0
20260510000605 8 231 0.0 0.0 0.00 0.00 0.00 82 1006.1
20260509235558 9 214 0.0 0.0 0.00 0.00 0.00 81 1006.1
20260509235055 9 205 0.0 0.0 0.00 0.00 0.00 81 1006.1
20260509234551 9 122 1.6 3.2 0.00 0.00 0.00 80 1006.2
20260509234049 9 166 1.6 3.2 0.00 0.00 0.00 80 1006.1
20260509233547 9 194 3.2 3.2 0.00 0.00 0.00 79 1005.8
20260509233044 10 165 4.8 4.8 0.00 0.00 0.00 78 1005.9
20260509232541 10 184 0.0 0.0 0.00 0.00 0.00 77 1005.8
20260509232037 10 185 1.6 4.8 0.00 0.00 0.00 77 1005.9
20260509231533 10 155 3.2 3.2 0.00 0.00 0.00 77 1005.7
20260509231031 10 175 3.2 4.8 0.00 0.00 0.00 77 1005.7
20260509230528 10 184 0.0 0.0 0.00 0.00 0.00 77 1006.0
20260509230025 10 202 1.6 3.2 0.00 0.00 0.00 78 1006.0
20260509225520 10 180 3.2 3.2 0.00 0.00 0.00 78 1005.9
20260509225016 10 217 0.0 1.6 0.00 0.00 0.00 77 1006.1
20260509224512 10 156 4.8 6.4 0.00 0.00 0.00 77 1006.0
20260509224009 10 135 3.2 3.2 0.00 0.00 0.00 77 1006.0
20260509223505 10 120 1.6 3.2 0.00 0.00 0.00 77 1006.1
20260509223003 10 157 0.0 0.0 0.00 0.00 0.00 76 1006.0
20260509222458 10 113 1.6 3.2 0.00 0.00 0.00 76 1005.6
20260509221955 10 187 3.2 3.2 0.00 0.00 0.00 76 1005.8
20260509221451 10 192 0.0 0.0 0.00 0.00 0.00 75 1005.8
20260509220947 10 142 1.6 3.2 0.00 0.00 0.00 76 1005.7
20260509220443 10 164 1.6 3.2 0.00 0.00 0.00 75 1005.8
20260509215939 10 87 6.4 11.3 0.00 0.00 0.00 74 1005.9
20260509215435 10 97 3.2 4.8 0.00 0.00 0.00 73 1005.8
20260509214932 10 211 1.6 3.2 0.00 0.00 0.00 72 1005.9
20260509214430 11 205 1.6 1.6 0.00 0.00 0.00 71 1006.1
20260509213926 11 216 0.0 0.0 0.00 0.00 0.00 71 1006.0
20260509213422 11 177 0.0 1.6 0.00 0.00 0.00 69 1006.2
20260509212920 11 220 3.2 4.8 0.00 0.00 0.00 69 1006.4
20260509212417 11 242 1.6 3.2 0.00 0.00 0.00 68 1006.1
20260509211913 11 118 4.8 4.8 0.00 0.00 0.00 68 1006.0
20260509211409 11 82 1.6 4.8 0.00 0.00 0.00 69 1006.1
20260509210905 11 121 8.0 9.7 0.00 0.00 0.00 68 1006.0
20260509210403 11 196 0.0 0.0 0.00 0.00 0.00 70 1005.8
20260509205858 11 157 4.8 4.8 0.00 0.00 0.00 70 1005.8
20260509205358 11 137 3.2 3.2 0.00 0.00 0.00 70 1006.0
20260509204855 10 165 4.8 4.8 0.00 0.00 0.00 70 1006.1
20260509204351 10 202 1.6 1.6 0.00 0.00 0.00 71 1006.2
20260509203847 10 180 3.2 4.8 0.00 0.00 0.00 70 1006.3
20260509203344 10 222 3.2 4.8 0.00 0.00 0.00 70 1006.3
20260509202841 10 164 1.6 3.2 0.00 0.00 0.00 70 1006.3
20260509202337 10 227 0.0 1.6 0.00 0.00 0.00 69 1006.6
20260509201837 11 180 9.7 12.9 0.00 0.00 0.00 68 1006.6
20260509201328 11 183 3.2 6.4 0.00 0.00 0.00 67 1006.7
20260509200824 11 162 1.6 3.2 0.00 0.00 0.00 67 1006.6
20260509200320 11 115 0.0 3.2 0.00 0.00 0.00 66 1006.7
20260509195816 11 207 3.2 6.4 0.00 0.00 0.00 65 1006.6
20260509195311 11 180 3.2 4.8 0.00 0.00 0.00 65 1006.6
20260509194810 11 225 1.6 1.6 0.00 0.00 0.00 64 1006.7
20260509194307 11 182 0.0 1.6 0.00 0.00 0.00 63 1006.8
20260509193804 12 207 6.4 11.3 0.00 0.00 0.00 61 1006.6
20260509193304 12 212 0.0 0.0 0.00 0.00 0.00 59 1006.6
20260509192800 13 227 0.0 1.6 0.00 0.00 0.00 58 1006.6
20260509192256 13 208 0.0 0.0 0.00 0.00 0.00 58 1006.7
20260509191751 12 212 4.8 4.8 0.00 0.00 0.00 57 1006.8
20260509191248 12 214 1.6 3.2 0.00 0.00 0.00 59 1006.6
20260509190743 13 132 6.4 9.7 0.00 0.00 0.00 57 1006.8
20260509190241 13 133 0.0 1.6 0.00 0.00 0.00 55 1006.7
20260509185738 13 218 3.2 4.8 0.00 0.00 0.00 56 1006.8
20260509185234 12 239 3.2 6.4 0.00 0.00 0.00 57 1006.9
20260509184732 12 198 1.6 3.2 0.00 0.00 0.00 58 1006.8
20260509184229 12 173 0.0 0.0 0.00 0.00 0.00 59 1007.2
20260509183725 12 87 6.4 9.7 0.00 0.00 0.00 59 1006.9
20260509183221 11 181 6.4 11.3 0.00 0.00 0.00 61 1007.1
20260509182716 12 167 11.3 12.9 0.00 0.00 0.00 60 1007.0
20260509182214 12 226 3.2 4.8 0.00 0.00 0.00 60 1007.2
20260509181712 12 193 4.8 6.4 0.00 0.00 0.00 59 1007.2
20260509181209 11 213 1.6 3.2 0.00 0.00 0.00 62 1007.1
20260509180706 11 192 1.6 3.2 0.00 0.00 0.00 62 1007.2
20260509180202 12 191 4.8 6.4 0.00 0.00 0.00 60 1007.4
20260509175659 12 181 1.6 1.6 0.00 0.00 0.00 60 1007.2
20260509175155 12 127 6.4 6.4 0.00 0.00 0.00 59 1007.3
20260509174651 13 306 1.6 3.2 0.00 0.00 0.00 57 1007.5
20260509174150 13 203 0.0 0.0 0.00 0.00 0.00 55 1007.5
20260509173647 13 194 0.0 0.0 0.00 0.00 0.00 56 1007.4
20260509173142 13 213 3.2 6.4 0.00 0.00 0.00 55 1007.5
20260509172639 12 215 0.0 1.6 0.00 0.00 0.00 56 1007.4
20260509172136 12 123 1.6 3.2 0.00 0.00 0.00 55 1007.5
20260509171631 12 141 1.6 3.2 0.00 0.00 0.00 55 1007.8
20260509171128 13 179 4.8 6.4 0.00 0.00 0.00 54 1007.8
20260509170624 12 219 0.0 1.6 0.00 0.00 0.00 54 1007.8
20260509170120 12 169 3.2 3.2 0.00 0.00 0.00 53 1007.8
20260509165619 13 174 1.6 1.6 0.00 0.00 0.00 51 1007.7
20260509165115 12 109 3.2 4.8 0.00 0.00 0.00 51 1008.0
20260509164611 12 140 3.2 4.8 0.00 0.00 0.00 50 1007.8
20260509164106 12 203 11.3 17.7 0.00 0.00 0.00 49 1008.0
20260509163605 12 188 9.7 14.5 0.00 0.00 0.00 48 1007.8
20260509163100 13 203 3.2 4.8 0.00 0.00 0.00 47 1007.9
20260509162557 13 102 3.2 3.2 0.00 0.00 0.00 46 1007.9
20260509162053 13 205 0.0 1.6 0.00 0.00 0.00 45 1008.2
20260509161545 12 196 4.8 4.8 0.00 0.00 0.00 45 1008.0
20260509161045 12 152 1.6 4.8 0.00 0.00 0.00 45 1008.0
20260509160541 12 189 1.6 4.8 0.00 0.00 0.00 43 1008.3
20260509160036 12 214 0.0 0.0 0.00 0.00 0.00 43 1008.4
20260509155533 12 210 0.0 0.0 0.00 0.00 0.00 43 1008.4
20260509155029 13 148 0.0 1.6 0.00 0.00 0.00 42 1008.4
20260509154525 12 167 1.6 1.6 0.00 0.00 0.00 42 1008.5
20260509154023 12 126 6.4 9.7 0.00 0.00 0.00 41 1008.3
20260509153520 13 235 3.2 6.4 0.00 0.00 0.00 40 1008.5
20260509153017 13 183 4.8 4.8 0.00 0.00 0.00 40 1008.8
20260509152512 14 202 0.0 0.0 0.00 0.00 0.00 38 1008.6
20260509152009 15 230 0.0 1.6 0.00 0.00 0.00 36 1008.8
20260509151505 14 210 0.0 0.0 0.00 0.00 0.00 36 1008.5
20260509151004 12 193 0.0 1.6 0.00 0.00 0.00 38 1009.1
20260509150500 12 168 3.2 3.2 0.00 0.00 0.00 38 1009.3
20260509145959 13 106 8.0 9.7 0.00 0.00 0.00 38 1009.0
20260509145454 12 225 0.0 0.0 0.00 0.00 0.00 39 1009.1
20260509144949 11 179 4.8 9.7 0.00 0.00 0.00 39 1009.2
20260509144447 12 123 3.2 4.8 0.00 0.00 0.00 39 1009.2
20260509143944 12 214 0.0 0.0 0.00 0.00 0.00 38 1009.2
20260509143441 12 111 1.6 6.4 0.00 0.00 0.00 39 1009.4
20260509142937 12 163 6.4 11.3 0.00 0.00 0.00 38 1009.0
20260509142434 12 105 4.8 6.4 0.00 0.00 0.00 37 1009.5
20260509141929 12 207 0.0 0.0 0.00 0.00 0.00 38 1009.4
20260509141426 11 171 3.2 4.8 0.00 0.00 0.00 38 1009.4
20260509140923 11 174 3.2 6.4 0.00 0.00 0.00 36 1009.5
20260509140420 12 128 3.2 3.2 0.00 0.00 0.00 37 1009.3
20260509135918 11 179 0.0 0.0 0.00 0.00 0.00 38 1009.4
20260509135415 11 191 1.6 3.2 0.00 0.00 0.00 37 1009.4
20260509134913 11 170 1.6 3.2 0.00 0.00 0.00 36 1009.4
20260509134410 11 214 0.0 0.0 0.00 0.00 0.00 36 1009.4
20260509133907 11 108 6.4 11.3 0.00 0.00 0.00 36 1009.3
20260509133403 11 174 1.6 3.2 0.00 0.00 0.00 36 1009.5
20260509132902 11 174 0.0 1.6 0.00 0.00 0.00 36 1009.5
20260509132359 11 205 0.0 0.0 0.00 0.00 0.00 35 1009.7
20260509131857 11 92 3.2 3.2 0.00 0.00 0.00 34 1009.8
20260509131354 11 199 0.0 1.6 0.00 0.00 0.00 36 1009.6
20260509130850 11 168 1.6 3.2 0.00 0.00 0.00 36 1009.6
20260509130345 12 134 3.2 6.4 0.00 0.00 0.00 35 1009.3
20260509125843 12 180 0.0 0.0 0.00 0.00 0.00 36 1009.5
20260509125339 11 184 4.8 6.4 0.00 0.00 0.00 35 1009.7
20260509124835 11 167 0.0 1.6 0.00 0.00 0.00 38 1009.6
20260509124332 11 198 1.6 3.2 0.00 0.00 0.00 37 1009.7
20260509123830 10 167 0.0 1.6 0.00 0.00 0.00 37 1009.6
20260509123327 10 145 0.0 1.6 0.00 0.00 0.00 38 1009.7
20260509122822 10 152 3.2 3.2 0.00 0.00 0.00 38 1009.5
20260509122320 10 100 4.8 4.8 0.00 0.00 0.00 39 1009.6
20260509121817 9 202 0.0 0.0 0.00 0.00 0.00 41 1009.7
20260509121314 8 176 3.2 3.2 0.00 0.00 0.00 41 1009.9
20260509120812 8 148 1.6 3.2 0.00 0.00 0.00 43 1009.8
20260509120310 7 127 3.2 4.8 0.00 0.00 0.00 44 1009.7
20260509115808 7 149 3.2 3.2 0.00 0.00 0.00 46 1009.7
20260509115307 7 171 1.6 3.2 0.00 0.00 0.00 48 1009.9
20260509114802 7 208 0.0 0.0 0.00 0.00 0.00 48 1009.7
20260509114301 6 177 3.2 3.2 0.00 0.00 0.00 50 1009.8
20260509113759 6 185 3.2 3.2 0.00 0.00 0.00 52 1009.9
20260509113256 6 152 3.2 4.8 0.00 0.00 0.00 54 1009.9
20260509112753 5 147 1.6 1.6 0.00 0.00 0.00 56 1009.7
20260509112250 5 193 1.6 3.2 0.00 0.00 0.00 59 1009.8
20260509111747 5 206 0.0 1.6 0.00 0.00 0.00 60 1009.8
20260509111244 3 184 1.6 1.6 0.00 0.00 0.00 62 1010.0
20260509110741 3 195 1.6 3.2 0.00 0.00 0.00 61 1009.9
20260509110238 3 195 0.0 1.6 0.00 0.00 0.00 64 1010.0
20260509105736 2 194 0.0 0.0 0.00 0.00 0.00 67 1009.8
20260509105233 2 182 1.6 1.6 0.00 0.00 0.00 68 1009.9
20260509104730 1 188 0.0 0.0 0.00 0.00 0.00 74 1009.8
20260509104227 0 205 0.0 0.0 0.00 0.00 0.00 79 1009.8
20260509103725 0 214 0.0 0.0 0.00 0.00 0.00 81 1010.0
20260509103222 0 214 0.0 0.0 0.00 0.00 0.00 79 1009.9
20260509102720 1 198 0.0 0.0 0.00 0.00 0.00 72 1010.0
20260509102217 1 196 0.0 0.0 0.00 0.00 0.00 72 1009.9
20260509101713 1 132 3.2 4.8 0.00 0.00 0.00 71 1009.9
20260509101209 1 199 0.0 0.0 0.00 0.00 0.00 72 1010.1
20260509100708 1 188 0.0 1.6 0.00 0.00 0.00 73 1010.0
20260509100204 0 125 3.2 4.8 0.00 0.00 0.00 73 1010.1
20260509095701 0 155 0.0 0.0 0.00 0.00 0.00 74 1009.9